When you browse on this site, cookies collect data to enhance your experience and personalize the content and advertising you see.
Visit our Privacy Policy to learn more. By continuing to use the site, you agree to this use of cookies and data.

Meteo orario Zibrovo

Oggi, 3 Luglio, Venerdi

Tempo Temperatura Precipitazioni Vento Pressione Umidità
00:00 +19°C° 0 mm 3 m/s 743 mm Hg 95%
01:00 +19°C° 0 mm 3 m/s 743 mm Hg 95%
02:00 +19°C° 0 mm 3 m/s 744 mm Hg 96%
03:00 +19°C° 0 mm 3 m/s 744 mm Hg 96%
04:00 +19°C° 0 mm 3 m/s 744 mm Hg 95%
05:00 +20°C° 0 mm 3 m/s 744 mm Hg 95%
06:00 +21°C° 0.1 mm 3 m/s 744 mm Hg 92%
07:00 +22°C° 0.1 mm 3 m/s 744 mm Hg 88%
08:00 +25°C° 0.1 mm 3 m/s 744 mm Hg 85%
09:00 +26°C° 1 mm 3 m/s 744 mm Hg 82%
10:00 +26°C° 1 mm 3 m/s 744 mm Hg 78%
11:00 +27°C° 1 mm 4 m/s 744 mm Hg 75%
12:00 +27°C° 1.7 mm 3 m/s 744 mm Hg 76%
13:00 +27°C° 1.7 mm 3 m/s 745 mm Hg 77%
14:00 +27°C° 1.7 mm 3 m/s 745 mm Hg 78%
15:00 +27°C° 0.3 mm 2 m/s 744 mm Hg 78%
16:00 +27°C° 0.3 mm 2 m/s 744 mm Hg 77%
17:00 +26°C° 0.3 mm 1 m/s 744 mm Hg 77%
18:00 +25°C° 0.1 mm 1 m/s 744 mm Hg 81%
19:00 +24°C° 0.1 mm 2 m/s 744 mm Hg 85%
20:00 +21°C° 0.1 mm 2 m/s 744 mm Hg 89%
21:00 +21°C° 0.3 mm 2 m/s 744 mm Hg 91%
22:00 +20°C° 0.3 mm 2 m/s 744 mm Hg 92%
23:00 +20°C° 0.3 mm 3 m/s 744 mm Hg 93%

Domani, 4 Luglio, Sabato

Tempo Temperatura Precipitazioni Vento Pressione Umidità
00:00 +20°C° 0.1 mm 3 m/s 744 mm Hg 94%
01:00 +19°C° 0.1 mm 3 m/s 744 mm Hg 94%
02:00 +19°C° 0.1 mm 3 m/s 744 mm Hg 94%
03:00 +19°C° 0 mm 3 m/s 744 mm Hg 94%
04:00 +20°C° 0 mm 3 m/s 744 mm Hg 93%
05:00 +20°C° 0 mm 3 m/s 744 mm Hg 93%
06:00 +21°C° 0.1 mm 3 m/s 744 mm Hg 90%
07:00 +22°C° 0.1 mm 3 m/s 744 mm Hg 86%
08:00 +25°C° 0.1 mm 4 m/s 744 mm Hg 83%
09:00 +26°C° 0.5 mm 4 m/s 744 mm Hg 79%
10:00 +27°C° 0.5 mm 4 m/s 744 mm Hg 76%
11:00 +28°C° 0.5 mm 4 m/s 744 mm Hg 72%
12:00 +28°C° 0.3 mm 4 m/s 744 mm Hg 72%
13:00 +28°C° 0.3 mm 3 m/s 744 mm Hg 72%
14:00 +28°C° 0.3 mm 3 m/s 744 mm Hg 72%
15:00 +27°C° 0.2 mm 3 m/s 743 mm Hg 76%
16:00 +26°C° 0.2 mm 2 m/s 743 mm Hg 80%
17:00 +25°C° 0.2 mm 2 m/s 743 mm Hg 85%
18:00 +24°C° 0 mm 2 m/s 743 mm Hg 85%
19:00 +23°C° 0 mm 2 m/s 743 mm Hg 86%
20:00 +21°C° 0 mm 2 m/s 743 mm Hg 87%
21:00 +20°C° 0 mm 2 m/s 743 mm Hg 87%
22:00 +20°C° 0 mm 2 m/s 743 mm Hg 88%
23:00 +19°C° 0 mm 2 m/s 743 mm Hg 88%

Dopodomani, 5 Luglio, Domenica

Tempo Temperatura Precipitazioni Vento Pressione Umidità
00:00 +19°C° 0 mm 2 m/s 743 mm Hg 90%
01:00 +19°C° 0 mm 2 m/s 743 mm Hg 92%
02:00 +19°C° 0 mm 2 m/s 743 mm Hg 94%
03:00 +19°C° 0.3 mm 2 m/s 743 mm Hg 94%
04:00 +20°C° 0.3 mm 1 m/s 743 mm Hg 95%
05:00 +20°C° 0.3 mm 1 m/s 743 mm Hg 95%
06:00 +21°C° 0.2 mm 1 m/s 743 mm Hg 94%
07:00 +21°C° 0.2 mm 1 m/s 743 mm Hg 92%
08:00 +22°C° 0.2 mm 1 m/s 743 mm Hg 90%
09:00 +23°C° 0.4 mm 1 m/s 743 mm Hg 85%
10:00 +24°C° 0.4 mm 1 m/s 743 mm Hg 80%
11:00 +25°C° 0.4 mm 1 m/s 743 mm Hg 75%
12:00 +26°C° 0.7 mm 1 m/s 743 mm Hg 76%
13:00 +26°C° 0.7 mm 1 m/s 743 mm Hg 77%
14:00 +26°C° 0.7 mm 1 m/s 742 mm Hg 77%
15:00 +24°C° 2 mm 2 m/s 742 mm Hg 83%
16:00 +23°C° 2 mm 2 m/s 742 mm Hg 89%
17:00 +21°C° 2 mm 3 m/s 742 mm Hg 94%
18:00 +20°C° 0.7 mm 2 m/s 742 mm Hg 95%
19:00 +19°C° 0.7 mm 2 m/s 742 mm Hg 96%
20:00 +20°C° 0.7 mm 1 m/s 742 mm Hg 97%
21:00 +20°C° 0.3 mm 1 m/s 742 mm Hg 97%
22:00 +19°C° 0.3 mm 2 m/s 742 mm Hg 97%
23:00 +18°C° 0.3 mm 2 m/s 742 mm Hg 97%

6 Luglio, Lunedi

Tempo Temperatura Precipitazioni Vento Pressione Umidità
00:00 +18°C° 0 mm 2 m/s 742 mm Hg 97%
01:00 +18°C° 0 mm 2 m/s 742 mm Hg 97%
02:00 +18°C° 0 mm 2 m/s 743 mm Hg 96%
03:00 +19°C° 0 mm 1 m/s 743 mm Hg 96%
04:00 +19°C° 0 mm 1 m/s 743 mm Hg 95%
05:00 +19°C° 0 mm 1 m/s 743 mm Hg 94%
06:00 +21°C° 0 mm 1 m/s 743 mm Hg 89%
07:00 +22°C° 0 mm 1 m/s 743 mm Hg 85%
08:00 +23°C° 0 mm 1 m/s 743 mm Hg 80%
09:00 +24°C° 0 mm 1 m/s 743 mm Hg 75%
10:00 +25°C° 0 mm 1 m/s 743 mm Hg 70%
11:00 +26°C° 0 mm 1 m/s 743 mm Hg 65%
12:00 +27°C° 0 mm 1 m/s 743 mm Hg 63%
13:00 +27°C° 0 mm 2 m/s 742 mm Hg 62%
14:00 +28°C° 0 mm 2 m/s 742 mm Hg 61%
15:00 +28°C° 0 mm 2 m/s 742 mm Hg 64%
16:00 +27°C° 0 mm 2 m/s 742 mm Hg 67%
17:00 +27°C° 0 mm 2 m/s 742 mm Hg 70%
18:00 +26°C° 0 mm 2 m/s 742 mm Hg 74%
19:00 +24°C° 0 mm 2 m/s 742 mm Hg 78%
20:00 +21°C° 0 mm 2 m/s 742 mm Hg 82%
21:00 +21°C° 0 mm 2 m/s 742 mm Hg 84%
22:00 +20°C° 0 mm 2 m/s 742 mm Hg 87%
23:00 +19°C° 0 mm 2 m/s 742 mm Hg 89%

7 Luglio, Martedi

Tempo Temperatura Precipitazioni Vento Pressione Umidità
00:00 +19°C° 0 mm 2 m/s 742 mm Hg 90%
01:00 +19°C° 0 mm 2 m/s 742 mm Hg 91%
02:00 +18°C° 0 mm 2 m/s 742 mm Hg 93%
03:00 +19°C° 0 mm 2 m/s 742 mm Hg 92%
04:00 +19°C° 0 mm 2 m/s 742 mm Hg 92%
05:00 +20°C° 0 mm 2 m/s 742 mm Hg 91%
06:00 +21°C° 0 mm 2 m/s 742 mm Hg 88%
07:00 +24°C° 0 mm 3 m/s 742 mm Hg 84%
08:00 +25°C° 0 mm 3 m/s 742 mm Hg 80%
09:00 +26°C° 0 mm 3 m/s 741 mm Hg 76%
10:00 +27°C° 0 mm 3 m/s 741 mm Hg 72%
11:00 +28°C° 0 mm 3 m/s 741 mm Hg 68%
12:00 +28°C° 0 mm 3 m/s 741 mm Hg 67%
13:00 +29°C° 0 mm 3 m/s 740 mm Hg 65%
14:00 +29°C° 0 mm 3 m/s 740 mm Hg 64%
15:00 +29°C° 0 mm 3 m/s 740 mm Hg 67%
16:00 +29°C° 0 mm 2 m/s 740 mm Hg 71%
17:00 +29°C° 0 mm 2 m/s 740 mm Hg 74%
18:00 +27°C° 1.8 mm 2 m/s 740 mm Hg 79%
19:00 +25°C° 1.8 mm 2 m/s 739 mm Hg 83%
20:00 +22°C° 1.8 mm 3 m/s 739 mm Hg 88%
21:00 +23°C° 1.3 mm 2 m/s 739 mm Hg 89%
22:00 +21°C° 1.3 mm 2 m/s 739 mm Hg 90%
23:00 +21°C° 1.3 mm 1 m/s 739 mm Hg 90%

8 Luglio, Mercoledi

Tempo Temperatura Precipitazioni Vento Pressione Umidità
00:00 +20°C° 0.7 mm 1 m/s 739 mm Hg 92%
01:00 +19°C° 0.7 mm 2 m/s 739 mm Hg 94%
02:00 +18°C° 0.7 mm 2 m/s 739 mm Hg 96%
03:00 +18°C° 0.7 mm 3 m/s 739 mm Hg 96%
04:00 +18°C° 0.7 mm 3 m/s 739 mm Hg 96%
05:00 +18°C° 0.7 mm 4 m/s 739 mm Hg 96%
06:00 +18°C° 0.2 mm 4 m/s 740 mm Hg 94%
07:00 +19°C° 0.2 mm 4 m/s 740 mm Hg 92%
08:00 +19°C° 0.2 mm 4 m/s 740 mm Hg 90%
09:00 +20°C° 0 mm 5 m/s 740 mm Hg 87%
10:00 +20°C° 0 mm 5 m/s 740 mm Hg 84%
11:00 +21°C° 0 mm 5 m/s 741 mm Hg 80%
12:00 +21°C° 0 mm 5 m/s 741 mm Hg 79%
13:00 +22°C° 0 mm 5 m/s 741 mm Hg 77%
14:00 +22°C° 0 mm 5 m/s 741 mm Hg 75%
15:00 +22°C° 0 mm 4 m/s 741 mm Hg 76%
16:00 +21°C° 0 mm 4 m/s 741 mm Hg 77%
17:00 +21°C° 0 mm 4 m/s 741 mm Hg 78%
18:00 +20°C° 0 mm 3 m/s 741 mm Hg 80%
19:00 +19°C° 0 mm 3 m/s 741 mm Hg 82%
20:00 +18°C° 0 mm 3 m/s 741 mm Hg 85%
21:00 +17°C° 0 mm 3 m/s 741 mm Hg 84%
22:00 +17°C° 0 mm 3 m/s 741 mm Hg 84%
23:00 +17°C° 0 mm 3 m/s 741 mm Hg 84%
Mostrare altro